GFSFLT2_prec_cloud_132.txt.gz
Cloud_Cover
1 0 1 42 0 0 0 0 0 0 0 1 0 1 5 0 0 5 75 100 8 5 1 0 0 0 5 24 21 8 100 100
0 0 0 0 1 8 1 0 0 0 0 0 0 2 5 43 6 15 5 66 99 100 34 5 3 59 66 48 100 95 91 100
5 0 0 0 0 3 53 30 2 12 24 8 67 0 0 5 5 5 5 73 4 14 71 99 56 72 100 8 83 30 53 76
5 5 5 5 5 6 8 6 21 14 9 5 14 0 7 20 0 3 5 100 100 84 100 100 100 98 100 47 99 51 6 97
100 97 15 6 5 3 5 46 91 91 80 66 45 37 36 32 51 28 15 37 62 99 100 100 100 100 100 100 100 95 83 99
100 100 100 94 100 98 97 100 100 100 86 100 89 98 100 21 58 97 100 90 63 83 100 100 100 100 100 100 96 100 90 100
100 100 100 100 100 100 100 100 100 100 100 100 100 100 60 100 100 74 100 100 100 100 97 96 100 100 100 100 100 97 63 100
100 100 100 100 100 100 100 100 100 100 100 100 100 100 100 99 98 44 82 100 100 100 100 100 100 100 100 100 100 100 100 98
100 100 100 100 100 100 100 100 100 100 100 100 100 100 100 100 98 100 100 99 96 72 100 100 100 100 100 100 100 100 100 100
74 86 100 100 100 100 100 100 100 100 100 100 100 100 100 100 100 91 98 100 100 100 100 100 100 100 100 100 100 100 100 88
100 100 100 100 100 100 100 100 100 100 61 35 33 35 32 58 63 91 100 100 93 100 100 100 100 100 100 100 100 100 100 100
100 100 100 100 100 100 100 100 100 97 100 100 74 12 5 4 0 1 8 57 96 100 100 100 97 98 78 98 100 100 100 100
72 58 100 96 100 100 100 100 55 62 10 5 5 5 18 5 2 0 0 2 82 99 100 100 100 100 100 91 100 64 100 100
100 100 100 98 46 8 12 5 5 5 5 5 5 4 4 6 8 4 0 0 0 11 92 100 100 100 100 100 100 100 100 100
100 100 100 100 100 100 98 89 65 22 46 81 5 4 0 1 2 0 0 0 0 0 1 31 100 100 100 100 100 100 100 100
45 64 100 100 78 33 55 30 21 5 5 5 9 7 17 79 90 51 6 2 0 0 0 2 67 98 96 96 100 100 100 100
3 2 2 1 1 5 5 5 5 5 5 5 5 5 5 5 48 98 90 79 95 95 63 31 32 8 25 99 100 91 100 93
0 0 0 0 0 1 18 16 8 5 13 5 3 3 4 15 65 100 100 100 100 100 100 100 100 92 36 42 72 100 100 100
5 4 4 5 8 7 27 40 57 48 85 77 87 46 38 100 99 100 100 100 100 100 100 100 100 100 100 93 19 6 56 100
5 1 5 2 28 45 59 70 99 94 100 100 100 100 100 100 100 100 100 100 100 100 100 100 100 100 100 100 100 80 16 32

GFSFLT2_prec_cloud_138.txt.gz
Cloud_Cover
0 0 0 17 100 100 100 100 73 100 55 35 5 0 0 0 0 0 0 0 0 0 0 0 4 5 5 0 5 6 5 5
0 1 0 2 5 13 35 67 96 86 99 61 24 5 3 0 0 0 0 0 0 0 0 2 0 0 2 1 5 5 6 5
30 0 50 27 5 38 61 88 71 45 80 63 38 3 0 0 0 0 0 0 1 10 4 2 0 0 2 5 3 76 100 100
5 4 4 24 22 64 5 15 83 100 35 5 11 1 0 3 0 0 1 27 36 29 98 88 44 4 3 5 91 86 88 81
4 0 0 4 4 6 26 99 100 100 100 100 100 100 99 98 70 100 100 100 100 100 100 92 98 12 22 78 91 34 11 12
4 2 2 1 28 3 75 61 17 60 96 99 78 52 25 18 57 97 100 100 100 100 100 94 96 84 72 100 100 100 82 76
3 3 5 5 5 31 59 98 92 100 78 90 100 100 68 83 44 28 93 100 100 100 100 99 100 100 100 100 100 100 100 100
49 56 36 6 85 48 32 62 95 95 100 100 100 89 100 100 90 59 54 96 99 100 97 100 100 100 100 100 100 100 100 100
84 100 100 100 97 70 100 73 100 100 100 100 50 56 100 100 100 30 100 100 89 64 92 100 100 100 100 100 100 100 100 100
100 52 9 21 37 56 68 90 100 100 100 100 100 100 100 100 100 100 100 14 5 8 77 100 100 100 100 100 100 100 100 100
5 4 5 5 9 5 8 48 69 100 100 100 100 100 100 98 88 99 44 0 24 38 68 92 100 100 100 100 100 100 100 100
5 5 5 14 5 43 3 5 98 92 94 100 100 100 100 100 100 90 25 5 0 0 4 28 100 100 100 100 100 100 100 100
5 5 5 5 5 5 5 5 11 43 99 100 100 100 100 100 100 100 100 100 100 18 0 3 100 100 100 100 100 100 100 100
0 5 5 31 92 99 93 91 76 30 19 45 100 100 100 100 100 94 95 100 100 56 4 0 96 100 100 100 100 100 100 100
4 4 2 4 58 100 100 93 94 45 48 9 5 1 1 27 55 98 100 98 76 31 4 0 12 98 100 100 100 100 100 100
5 7 22 88 13 5 6 22 67 100 100 100 86 44 24 3 0 0 0 7 21 16 37 35 35 41 100 100 100 100 100 100
14 20 5 5 6 5 5 5 4 0 0 1 0 0 1 5 0 1 6 90 93 86 98 100 100 100 77 99 100 81 57 94
5 5 5 5 0 0 0 0 0 0 1 5 5 5 5 7 75 100 100 100 100 100 100 100 100 100 100 100 100 91 53 43
1 4 6 5 5 5 4 2 4 5 5 5 28 65 100 100 100 100 100 100 100 100 100 100 100 100 100 100 100 100 100 99
83 100 100 100 100 100 51 5 5 6 37 55 41 100 100 100 100 100 100 100 100 100 100 100 100 100 100 100 100 100 100 100

GFSFLT2_prec_cloud_141.txt.gz
Cloud_Cover
7 2 0 1 0 1 4 55 100 99 64 44 68 100 7 5 0 1 0 0 0 0 0 0 0 0 0 1 4 5 5 5
44 78 78 55 1 0 5 5 0 3 38 100 99 13 100 97 17 1 0 0 0 6 3 5 3 5 48 5 0 0 0 6
97 60 5 43 78 67 6 24 56 100 100 100 100 100 100 100 44 4 6 47 92 100 99 90 42 100 56 76 5 19 31 100
2 2 2 2 3 52 100 3 50 100 100 100 100 100 100 100 100 96 68 100 100 100 100 100 100 99 94 100 100 100 90 35
5 0 0 0 0 49 88 100 62 100 100 100 100 100 100 100 100 5 85 100 100 100 100 100 100 100 100 100 100 100 100 100
3 0 2 0 1 12 93 81 100 100 100 100 100 100 100 100 100 85 97 92 75 95 100 77 100 100 100 100 99 100 100 100
0 0 0 1 0 2 6 93 94 87 72 100 100 59 94 100 63 24 44 37 49 85 95 100 100 100 100 100 100 100 100 100
2 0 4 5 5 5 29 87 24 100 100 50 2 56 89 35 79 100 100 36 24 100 34 83 100 100 100 100 100 100 100 100
4 0 0 4 5 33 81 72 12 20 34 30 64 22 84 8 99 100 100 82 100 100 49 73 71 40 100 100 100 100 100 100
0 2 0 0 0 0 0 0 0 0 0 1 4 3 84 95 100 96 100 100 98 6 1 58 98 100 100 100 100 100 100 100
5 5 4 4 0 0 0 0 0 1 0 0 0 3 32 21 32 92 94 39 4 3 0 2 16 86 100 100 100 100 100 100
5 3 2 5 1 0 0 0 0 8 4 5 5 5 5 5 8 35 72 100 94 27 5 2 1 5 94 100 100 100 100 100
17 5 5 5 5 4 0 0 0 5 46 100 100 99 92 43 54 60 99 66 100 100 94 20 0 0 96 100 100 100 100 100
51 31 41 34 5 4 2 0 0 0 0 0 15 90 100 100 100 100 59 30 5 28 97 100 100 6 5 91 100 100 100 100
100 100 71 98 87 90 10 5 2 0 0 0 0 3 4 30 94 100 100 100 93 6 5 5 57 16 5 40 99 100 100 100
12 9 5 5 5 7 8 5 3 0 0 0 0 0 0 3 7 62 100 90 85 94 94 95 92 28 26 34 90 79 100 100
5 1 0 4 0 0 0 0 1 0 1 4 5 5 5 5 5 5 90 100 100 100 100 100 100 100 100 100 36 22 99 94
0 0 0 0 0 0 0 1 2 8 89 100 97 24 5 5 6 74 81 100 100 100 100 100 100 100 100 100 100 100 99 100
0 0 0 0 0 3 15 34 76 100 100 100 69 6 5 5 5 52 93 100 100 98 100 100 100 100 100 100 100 100 100 100
1 0 0 4 5 10 71 94 98 100 100 83 84 5 6 5 5 5 12 6 7 98 100 100 100 100 100 100 100 100 100 100

GFSFLT2_prec_cloud_144.txt.gz
Cloud_Cover
9 12 5 40 5 5 5 4 2 5 5 93 75 5 18 5 30 49 50 16 22 4 0 0 0 0 0 0 5 5 30 0
88 63 16 18 36 4 0 5 21 33 69 91 89 94 100 100 100 100 100 100 90 93 24 3 5 5 6 81 92 74 100 100
0 0 0 22 59 96 24 1 5 19 37 27 29 74 99 100 100 100 100 100 100 100 100 100 100 100 100 100 100 100 100 100
0 0 0 0 22 42 73 100 100 92 100 100 98 70 100 100 100 100 100 100 100 100 58 100 100 100 100 100 100 100 100 100
32 5 5 1 23 35 61 90 39 48 76 100 100 90 100 100 100 100 100 100 100 100 68 100 100 100 100 100 100 100 100 100
88 100 58 33 9 6 60 84 74 100 100 61 64 62 96 100 100 100 100 98 70 100 99 99 100 100 100 100 100 100 100 100
5 15 76 91 36 5 4 69 100 100 100 98 59 51 52 100 100 100 100 100 75 79 63 60 85 100 100 100 100 100 100 100
51 5 5 6 5 4 3 0 1 47 93 100 93 6 14 5 41 91 100 100 100 39 13 69 66 30 95 82 100 100 100 100
6 14 54 6 0 0 0 0 0 0 0 0 0 2 0 0 0 8 45 100 100 59 27 4 56 93 36 41 100 100 100 100
5 0 3 11 5 0 0 0 0 0 0 0 0 0 0 0 2 41 39 48 68 76 14 3 0 14 90 68 80 99 100 100
2 0 0 5 17 8 4 1 5 2 0 0 0 0 0 0 0 0 0 0 0 0 2 5 0 2 6 77 100 100 100 100
90 57 5 12 88 100 91 5 5 5 5 5 3 0 0 5 4 3 2 0 0 0 1 0 6 58 4 15 80 91 100 100
61 87 100 43 28 14 36 27 12 5 7 42 32 5 1 0 0 0 1 0 5 1 3 1 0 0 16 3 5 97 93 100
31 4 16 21 6 5 5 5 5 5 5 9 65 63 20 5 2 0 0 0 0 0 26 83 18 0 28 53 64 39 100 97
37 26 5 8 5 6 10 5 5 5 1 3 2 1 5 14 6 25 4 5 5 7 13 0 48 64 16 92 94 69 65 91
43 65 38 12 5 6 5 0 1 0 0 0 5 5 5 5 5 5 5 5 73 96 100 96 91 57 20 100 100 98 95 52
0 2 5 5 5 3 0 0 0 0 1 5 5 5 5 5 5 5 5 5 77 74 85 100 100 99 100 100 53 80 100 87
5 3 2 0 0 0 0 0 2 5 5 5 5 21 9 5 6 5 5 5 5 13 99 100 100 100 100 100 100 100 100 100
94 11 39 5 0 0 5 4 5 5 5 5 20 57 72 15 45 86 13 5 5 93 100 100 100 100 100 100 100 100 100 100
52 42 8 5 5 3 4 5 5 5 5 93 100 99 100 100 98 30 6 5 5 14 58 9 12 53 91 100 100 100 100 100

GFSFLT2_prec_cloud_147.txt.gz
Cloud_Cover
10 15 24 24 11 0 0 0 5 6 5 5 5 4 2 4 1 11 78 100 99 89 33 58 7 30 5 5 5 14 54 100
98 97 30 40 94 92 23 31 65 59 56 41 21 83 89 70 87 63 91 100 99 100 100 100 95 100 100 100 100 100 100 100
4 5 6 45 98 100 98 100 100 100 78 92 78 39 30 35 100 51 78 95 82 99 100 99 100 100 100 100 100 100 100 100
0 5 5 6 46 100 100 100 89 6 36 85 100 100 87 95 96 89 100 100 98 96 78 40 99 100 100 100 100 100 100 100
0 0 0 5 7 68 100 100 63 8 14 27 100 100 100 100 100 100 100 100 70 74 97 85 98 100 100 100 100 100 100 100
70 60 6 65 19 8 71 82 6 21 79 100 100 100 100 100 100 96 62 87 97 99 46 91 41 100 66 100 100 100 100 100
3 28 91 5 3 5 33 49 19 42 100 64 100 100 100 99 45 1 2 4 8 50 100 100 94 83 100 59 100 100 100 100
0 6 5 4 8 5 5 5 6 4 10 54 99 90 100 100 71 2 0 1 5 5 22 92 99 100 96 100 82 100 100 100
3 0 0 0 0 0 0 0 0 1 0 0 0 0 0 0 0 0 0 0 0 0 2 0 1 8 92 87 91 96 100 100
0 0 0 0 0 0 0 0 0 0 0 0 0 3 0 0 0 0 0 0 0 0 0 0 0 4 5 26 47 100 100 100
5 0 4 0 5 36 30 16 19 5 5 4 2 7 4 2 0 0 0 0 0 0 0 0 0 5 1 5 80 95 100 100
100 96 71 11 8 16 75 100 100 98 100 99 88 12 5 5 5 0 0 0 1 0 0 1 38 0 0 2 5 21 98 100
100 97 100 45 2 3 0 5 100 100 100 100 99 20 5 0 0 0 0 0 0 0 0 0 0 4 16 0 0 0 4 95
47 4 17 16 4 0 0 1 8 100 100 86 56 38 48 8 2 0 0 0 0 0 0 0 0 0 22 80 57 4 0 0
2 4 5 5 0 3 11 42 55 10 25 81 86 90 5 3 5 5 5 5 5 5 5 5 18 2 30 77 66 51 61 0
5 5 5 5 5 5 92 16 15 9 5 5 5 5 5 5 5 5 5 5 5 5 5 5 23 59 21 100 98 93 98 56
5 9 97 89 100 100 73 6 94 5 5 5 5 5 5 5 5 5 5 5 7 6 20 8 11 51 100 100 47 47 98 100
13 89 94 94 100 66 5 5 6 70 53 5 5 5 5 5 5 5 5 5 22 70 99 74 8 7 89 100 100 100 100 100
88 100 100 100 100 50 99 99 100 100 100 23 5 12 5 5 5 5 9 65 99 94 79 96 62 45 9 8 88 100 100 100
100 100 26 45 90 99 90 100 71 18 74 30 32 91 28 45 48 47 55 6 61 100 79 5 5 5 5 6 5 11 31 100

GFSFLT2_prec_cloud_150.txt.gz
Cloud_Cover
5 0 25 100 85 2 13 28 32 8 15 8 25 97 100 100 100 100 66 86 96 51 20 52 100 95 95 100 100 100 100 100
42 40 12 44 100 100 100 100 100 100 100 100 88 71 47 31 48 53 2 0 6 82 99 100 80 90 100 100 100 100 100 100
5 5 3 18 99 95 97 100 100 48 1 77 57 99 100 98 100 74 21 0 0 42 9 12 77 92 100 100 100 100 100 100
5 2 12 36 100 100 100 100 92 0 0 0 24 71 100 100 75 94 100 87 59 31 4 5 72 90 100 100 98 100 100 100
7 44 5 15 57 66 86 100 38 0 5 5 2 10 13 100 100 100 100 100 99 68 55 87 34 32 57 100 75 100 100 100
100 7 5 8 4 6 0 53 34 0 0 0 0 73 100 100 100 100 100 28 1 9 6 62 100 99 94 100 56 99 100 100
100 100 88 30 5 3 0 0 0 0 0 0 0 61 100 22 90 100 97 94 1 12 0 0 55 70 19 100 100 73 99 100
35 10 5 5 4 1 0 0 0 0 0 0 0 0 0 0 0 0 0 14 1 0 0 0 1 35 100 100 100 99 94 100
5 5 5 0 0 0 1 4 0 0 0 0 0 1 5 5 3 0 0 0 0 0 0 0 0 0 2 21 100 100 100 63
5 3 2 0 0 4 5 5 1 0 0 0 0 0 0 28 58 5 39 41 19 3 0 0 0 12 0 0 5 20 44 95
2 4 2 3 5 8 8 4 1 2 4 0 2 0 0 0 1 3 45 22 30 4 5 2 0 2 0 0 0 5 16 26
53 58 67 100 100 100 98 98 77 20 4 5 5 0 0 4 58 24 65 48 91 46 2 0 34 0 0 0 0 0 0 7
100 100 100 100 100 100 100 100 100 45 44 5 3 5 5 100 100 4 25 30 2 4 72 5 5 0 0 0 0 0 0 0
10 5 15 91 100 100 100 100 84 43 10 1 4 10 100 100 42 2 0 2 2 4 5 5 5 0 23 97 16 1 0 0
5 5 5 5 42 79 65 37 49 33 17 5 7 83 100 40 5 5 5 32 60 6 5 5 5 4 74 62 83 68 61 0
98 42 54 5 5 3 4 4 5 24 100 100 100 98 54 91 100 100 100 100 98 56 5 5 5 36 22 79 99 100 99 57
20 4 5 5 5 5 5 5 6 84 96 65 6 46 94 100 100 100 100 67 63 99 96 51 5 5 55 63 84 8 64 100
6 5 5 5 5 61 85 100 94 5 5 84 39 37 70 34 6 90 94 60 30 13 18 5 5 31 77 99 100 100 98 90
100 100 86 76 96 100 100 100 100 100 81 10 6 8 5 5 5 5 5 5 5 17 86 94 39 10 91 100 100 100 62 62
66 19 7 95 100 100 97 100 99 100 100 100 100 100 85 94 72 82 44 70 88 91 99 100 69 5 8 17 98 80 33 49

GFSFLT2_prec_cloud_156.txt.gz
Cloud_Cover
47 28 93 100 100 100 89 5 19 36 36 24 40 26 71 62 36 63 34 14 9 85 34 9 23 4 100 100 100 100 100 100
100 100 100 100 100 100 86 91 100 100 100 100 100 97 65 90 15 36 18 0 1 5 0 0 0 0 10 99 100 32 48 100
100 100 100 100 83 77 76 88 95 46 78 98 92 100 100 50 23 18 10 16 11 15 9 1 0 0 0 4 81 24 63 74
80 100 100 100 100 99 93 52 78 13 34 55 89 83 22 2 5 5 5 5 5 7 5 5 3 58 74 50 25 45 45 95
8 90 100 100 100 100 100 100 100 81 12 11 22 10 1 3 0 4 20 81 8 31 47 5 24 5 2 28 57 35 67 95
8 44 15 99 100 100 100 100 96 44 54 6 5 5 0 0 0 0 0 4 5 5 5 5 5 5 5 5 2 40 39 23
71 83 50 22 80 100 100 45 30 43 7 5 5 5 3 0 0 0 0 0 0 0 0 3 5 5 5 4 8 56 100 32
41 44 98 75 81 94 96 98 100 48 27 5 5 3 2 5 5 4 3 0 0 3 0 0 0 4 4 1 9 34 28 54
5 5 43 100 65 60 51 97 54 5 5 5 5 4 0 0 0 0 0 0 0 1 0 0 0 0 0 0 0 0 3 45
9 5 6 55 5 5 13 54 76 76 16 5 5 18 4 1 0 0 0 0 0 0 0 4 4 0 4 5 3 0 0 0
90 66 35 6 5 5 5 42 92 73 95 79 9 5 5 5 4 0 0 0 0 4 0 4 7 42 13 56 54 36 3 0
5 5 5 5 11 5 27 39 15 5 6 7 5 5 0 0 0 0 1 2 100 32 5 6 83 99 70 100 100 100 100 3
82 76 63 5 5 6 12 5 5 18 5 29 5 2 0 4 5 5 0 3 24 3 51 100 100 94 97 55 21 66 5 22
100 40 37 7 5 5 5 21 17 5 5 5 5 5 4 4 5 4 5 4 4 8 24 68 83 94 71 23 8 0 0 0
86 71 37 12 61 48 11 8 5 5 5 5 5 23 33 5 5 5 5 5 7 27 79 9 10 90 14 18 2 0 0 0
96 23 43 64 18 66 48 49 78 62 21 5 96 100 100 5 25 88 57 82 76 100 100 58 94 98 100 100 16 7 5 3
74 75 94 86 98 98 99 68 10 5 5 5 5 11 32 97 99 100 100 100 100 100 100 100 100 95 91 46 100 11 11 8
100 30 5 27 46 27 23 100 48 5 5 100 60 33 94 95 98 100 100 100 100 95 48 98 100 100 100 29 5 8 5 19
100 100 100 96 82 88 91 89 86 71 50 95 99 100 100 100 100 100 100 100 100 100 100 100 100 20 5 5 22 54 5 99
100 100 100 100 100 100 100 100 100 100 100 100 100 100 100 100 100 100 100 100 100 100 100 86 5 5 5 5 5 5 5 16